Info: TELAH HADIR TOURNAMENT DI MOBILE BROWSER ANDA DAN MAINKAN SEKARANG JUGA - BCA BNI BRI CIMBNIAGA MANDIRI PERMATA ONLINE - HARAP PERHATIKAN MENU DEPOSIT SEBELUM MELAKUKAN TRANSFER..Akses selalu melalui website resmi kami http://pk88asia.xyz
REGISTER JACKPOT DEPOSIT REFERRAL DOWNLOAD PROMOSI CONTACT VIP
JACKPOT



   

Jackpot Winner Texas Poker
Kini Telah hadir Jackpot SUPER ROYAL FLUSH
Kini Telah hadir Jackpot 2000 (khusus table VIP keatas).

Jackpot hanya dapat di beli di awal sebelum periode tersebut berjalan dan jika berhasil maka anda dapat melihat di sisi kiri bawah atau kiri atas akan terdapat notifikasi bahwa jackpot anda berhasil di beli.

Jika anda membeli jackpot di tengah permainan maka pembelian jackpot akan berlaku untuk periode selanjutnya.

Ikutilah global jackpot yang tersedia di system kami, dengan system jackpot terbaru dan pertama di indonesia, anda dapat membeli jackpot dengan harga 100 rupiah saja dan menangkan hadiahnya hingga puluhan juta rupiah.

Jackpot bukanlah suatu keharusan untuk dibeli, namun kami memberikan suatu fitur tambahan untuk member tercinta dari www.kitapoker88.com.

Terdapat tiga pilihan harga jackpot yang bisa anda beli yaitu :100,500,1000 dan 2000(khusus table VIP Keatas) rupiah.

Hadiah dari Multi jackpot system www.kitapoker88.com

  1. full house x 10 harga jackpot yang anda beli.
      (contoH:anda membeli 1000 maka:1000 X10 = 10.000)
  2. four of kind x 250 harga jackpot yang anda beli
      (contoH:anda membeli 1000 maka:1000 X250 = 250.000)
  3. Straight flush x 1200
      (contoH:anda membeli 1000 maka:1000 X1200 = 1.200.000)
  4. Royal flush x 10000 harga jackpot yang anda beli
      (contoH:anda membeli 1000 maka:1000 X10000 = 10.000.000)
  5. SUPER ROYAL FLUSH x 30000 harga jackpot yang anda beli
      (contoH:anda membeli 1000 maka:1000 X30000 = 30.000.000)

Note: Untuk mendapatkan jackpot di satu periode, pemain harus menyelesaikan permainan di periode tersebut, minimal 2 pemain. Jika semua pemain 'fold' jackpot tidak akan diturunkan.

Kondisi kartu

  1. full house adalah kondisi kartu dimana kartu anda dan kartu tengah dengan total 7 kartu bisa mendapatkan nilai 5 kartu dengan kombinasi 1 tris(three of kind) dan 1 pair, contoh 3 kartu 10 dan 2 kartu 5
  2. Four of kind adalah kondisi kartu dimana kartu anda dan kartu tengah dengan total 7 kartu bisa mendapatkan nilai 5 kartu dengan kombinasi 4 kartu yang sama jumlah dan 1 kartu apapun juga contoh anda mendapatkan 4 buah kartu angka 3 dan 1 kartu apapun.
  3. Straight flush adalah kondisi kartu dimana kartu anda dan kartu tengah dengan total 7 kartu bisa mendapatkan nilai 5 kartu dengan kombinasi seri / staright dengan kembang yang sama contoh : urutan kartu dari angka 5, 6, 7, 8 , 9 10 dengan kembang yg sama misalnya as hati
  4. Royal flush adalah kondisi kartu dimana kartu anda dan kartu tengah dengan total 7 kartu bisa mendapatkan nilai 5 kartu dengan kombinasi seri / staright dengan kembang yang sama tetapi kartu tersebut haruslah dimulai dari 10. contoh 10, Queen, Jack, King dan aces dengan kembang yang sama
  5. Super Royal flush adalah kondisi kartu dimana Kedua kartu anda digabung dengan 3 kartu pertama meja haruslah royal flush. contoh kartu anda10,Queen dan 3 kartu pertama meja adalah Jack, King dan aces dengan kembang yang sama

Demikian adalah penjelasan dari Multi Jackpot www.kitapoker88.com terima kasih dan selamat bermain salam hoki dari kami


Jackpot Winner

TOP SUPER ROYAL FLUSH
No. Tanggal Nama Price Win
1 23/02 10:41 RA18P8256V Super Royal flush 30,000,000
2 22/02 23:52 SARUAK005 Super Royal flush 30,000,000
3 22/02 23:47 WILIAMHIL Super Royal flush 30,000,000
4 22/02 21:47 KERA12123 Super Royal flush 3,000,000
5 22/02 21:42 EKSYA23 Super Royal flush 6,000,000
TOP ROYAL FLUSH
No. Tanggal Nama Price Win
1 23/02 12:32 DDYR Royal flush 10,000,000
2 23/02 12:30 TEMPUR1983 Royal flush 5,000,000
3 23/02 12:05 THANIA90 Royal flush 5,000,000
4 23/02 11:59 E6C6345A Royal flush 10,000,000
5 23/02 11:50 KINKONK182 Royal flush 5,000,000
TOP STRAIGHT FLUSH
No. Tanggal Nama Price Win
1 23/02 12:38 DIDIT5 Straight Flush 2,400,000
2 23/02 12:34 YADUSH70 Straight Flush 1,200,000
3 23/02 12:31 CUAKEP Straight Flush 60,000
4 23/02 12:28 XBOBSX Straight Flush 600,000
5 23/02 12:27 HNP99 Straight Flush 600,000
LATEST JACKPOT
No. Tanggal Nama Price Win
1 23/02 12:40 NASAK Full House 5,000
2 23/02 12:40 NANA50 Full House 10,000
3 23/02 12:40 DINS77 Full House 2,000
4 23/02 12:40 WEWE08 Full House 10,000
5 23/02 12:40 ANGGIT11 Four Of A Kind 250,000
6 23/02 12:40 JK505 Full House 5,000
7 23/02 12:40 JOUNTKP Full House 2,000
8 23/02 12:40 CODOTAJAH Full House 10,000
9 23/02 12:40 MACANASI49 Full House 2,000
10 23/02 12:40 JETPOT88 Full House 2,000
11 23/02 12:40 V36AS99 Full House 1,000
12 23/02 12:40 MURSIDAH18 Full House 2,000
13 23/02 12:40 ACE96 Full House 5,000
14 23/02 12:40 LADIES90 Full House 2,000
15 23/02 12:40 A51OS354438 Full House 10,000
16 23/02 12:40 PAKENCOL90210 Full House 2,000
17 23/02 12:40 KLT458 Full House 2,000
18 23/02 12:40 QQBRANDAL9 Full House 2,000
19 23/02 12:40 BONDAN25 Full House 10,000
20 23/02 12:40 KEYSHA08 Full House 2,000
21 23/02 12:40 KLUWUS99 Full House 20,000
22 23/02 12:40 CAGAK98 Full House 1,000
23 23/02 12:40 SUNGANU08 Full House 500
24 23/02 12:40 ASKA26 Full House 1,000
25 23/02 12:40 IDAY666 Full House 2,000
26 23/02 12:40 GURUN Full House 10,000
27 23/02 12:39 THOYBAH113 Full House 2,000
28 23/02 12:39 WILY99 Four Of A Kind 50,000
29 23/02 12:39 EFRY757575 Full House 2,000
30 23/02 12:39 YUHGNTG28 Full House 1,000
31 23/02 12:39 AZISWALUYO Full House 2,000
32 23/02 12:39 HUDA81 Full House 1,000
33 23/02 12:39 SUMBILANG Full House 5,000
34 23/02 12:39 JULI1700 Full House 2,000
35 23/02 12:39 DEWA356 Full House 2,000
36 23/02 12:39 PIKACU30 Four Of A Kind 12,500
37 23/02 12:39 C24A678C Full House 5,000
38 23/02 12:39 DUO71749B0 Full House 5,000
39 23/02 12:39 FANB0 Full House 20,000
40 23/02 12:39 REZARAZU2805 Full House 20,000
41 23/02 12:39 APEX3461 Full House 10,000
42 23/02 12:39 CIKIDAUW17 Full House 20,000
43 23/02 12:39 JAGOE999 Full House 10,000
44 23/02 12:39 DINS77 Full House 2,000
45 23/02 12:39 MENANGWE9 Full House 1,000
46 23/02 12:39 CIIMON87 Full House 2,000
47 23/02 12:39 BONKS Full House 5,000
48 23/02 12:39 SAMBOJA55 Full House 5,000
49 23/02 12:39 SA8899 Full House 20,000
50 23/02 12:39 SUPER_MIE2 Full House 20,000